User: anonymous   Login
Location: Unspecified
(0.0000°N, 0.0000°E)
Time: 18:21:26
(UTC+00:00)
Language:

Landsat 7 - Orbit

View from above orbital plane
View from above orbital plane
View from above satellite
View from above satellite

Ground track
Ground track

The orbit data is extracted from the following two-line orbital elements,

1 25682U 99020A   15149.18373580 -.00002467  00000-0 -53796-3 0  9992
2 25682 098.2166 219.3526 0001154 096.0341 264.0998 14.57094112857371
Epoch (UTC): 29 May 2015 04:24:34
Eccentricity: 0.0001154
inclination: 98.2166°
perigee height: 702 km
apogee height: 703 km
right ascension of ascending node: 219.3526°
argument of perigee: 96.0341°
revolutions per day: 14.57094112
mean anomaly at epoch: 264.0998°
orbit number at epoch: 85737

The dashed part of the orbit path shows where the satellite is in the earth's shadow,  

DLR